Weather History for Omaha Millard, NE

Change the Weather History Date:

Tuesday, December 3, 2013

  Actual Average (KOMA) Record (KOMA)
Temperature  
Mean Temperature 38 °F 30 °F  
Max Temperature 44 °F 39 °F 64 °F (1959)
Min Temperature 31 °F 20 °F -8 °F (1871)
Degree Days  
Heating Degree Days 28 35  
Month to date heating degree days 104  
Since 1 July heating degree days 1374  
Cooling Degree Days 0 0  
Month to date cooling degree days 0  
Year to date cooling degree days 1113  
Moisture  
Dew Point 31 °F    
Average Humidity 79    
Maximum Humidity 90    
Minimum Humidity 63    
Precipitation  
Precipitation 0.00 in 0.04 in 1.01 in (1953)
Month to date precipitation 0.12  
Year to date precipitation 29.70  
Snow  
Snow 0.00 in 0.10 in - ()
Month to date snowfall 0.5  
Since 1 July snowfall 3.3  
Snow Depth -    
Sea Level Pressure  
Sea Level Pressure 29.58 in    
Wind  
Wind Speed 3 mph (North)    
Max Wind Speed 12 mph    
Max Gust Speed 17 mph    
Visibility 8 miles    
Events      
T = Trace of Precipitation, MM = Missing Value Source: NWS Daily Summary

Daily Weather History Graph

Daily Weather History Graph

Search for Another Location

Airport:

Trip Planner

Search our weather history database for the weather conditions in past years. The results will help you decide how hot, cold, wet, or windy it might be!

Date:

Astronomy

Dec. 03, 2013 Rise Set
Actual Time 7:32 AM CST 4:55 PM CST
Civil Twilight 7:02 AM CST 5:26 PM CST
Nautical Twilight 6:27 AM CST 6:00 PM CST
Astronomical Twilight 5:54 AM CST 6:34 PM CST
Moon 8:02 AM CST (12/3) 6:00 PM CST (12/3)
Length of Visible Light 10h 24m
Length of Day
9h 23m
New Moon, 1% of the Moon is Illuminated
Dec 3
New Moon
Dec 9
First Quarter
Dec 17
Full
Dec 25
Last Quarter
Jan 1
New

Hourly Weather History & Observations

Time (CST) Temp. Windchill Dew Point Humidity Pressure Visibility Wind Dir Wind Speed Gust Speed Precip Events Conditions
12:15 AM 35.2 °F - 30.0 °F 81% 29.52 in 10.0 mi Calm Calm - N/A   Clear
12:35 AM 33.4 °F - 29.7 °F 86% 29.51 in 10.0 mi Calm Calm - N/A   Clear
12:55 AM 33.1 °F - 29.7 °F 87% 29.52 in 10.0 mi Calm Calm - N/A   Clear
1:15 AM 32.9 °F - 29.8 °F 88% 29.51 in 10.0 mi Calm Calm - N/A   Clear
1:35 AM 32.2 °F - 29.3 °F 89% 29.52 in 10.0 mi Calm Calm - N/A   Clear
1:55 AM 32.7 °F - 29.1 °F 87% 29.52 in 10.0 mi Calm Calm - N/A   Clear
2:15 AM 32.0 °F - 28.9 °F 88% 29.52 in 10.0 mi Calm Calm - N/A   Clear
2:35 AM 31.8 °F - 28.6 °F 88% 29.52 in 10.0 mi Calm Calm - N/A   Clear
2:55 AM 32.0 °F - 28.6 °F 87% 29.52 in 10.0 mi Calm Calm - N/A   Clear
3:15 AM 32.2 °F - 28.4 °F 86% 29.51 in 10.0 mi Calm Calm - N/A   Clear
3:35 AM 32.4 °F - 28.8 °F 87% 29.50 in 10.0 mi Calm Calm - N/A   Clear
3:55 AM 33.3 °F - 29.5 °F 86% 29.50 in 10.0 mi Calm Calm - N/A   Clear
4:15 AM 33.4 °F - 29.3 °F 85% 29.49 in 10.0 mi Calm Calm - N/A   Clear
4:35 AM 33.6 °F - 29.5 °F 85% 29.50 in 10.0 mi Calm Calm - N/A   Clear
4:55 AM 33.6 °F - 29.7 °F 85% 29.50 in 10.0 mi Calm Calm - N/A   Clear
5:15 AM 33.6 °F - 30.0 °F 87% 29.51 in 10.0 mi Calm Calm - N/A   Clear
5:35 AM 33.6 °F - 30.0 °F 87% 29.50 in 10.0 mi Calm Calm - N/A   Clear
5:55 AM 34.5 °F - 30.7 °F 86% 29.49 in 10.0 mi Calm Calm - N/A   Clear
6:15 AM 36.0 °F - 31.8 °F 85% 29.50 in 10.0 mi Calm Calm - N/A   Clear
6:35 AM 35.6 °F - 31.6 °F 85% 29.51 in 10.0 mi Calm Calm - N/A   Clear
6:55 AM 34.9 °F - 31.6 °F 88% 29.50 in 10.0 mi Calm Calm - N/A   Clear
7:15 AM 34.0 °F - 31.3 °F 90% 29.51 in 10.0 mi Calm Calm - N/A   Clear
7:35 AM 34.7 °F 31.8 °F 31.1 °F 87% 29.52 in 10.0 mi NW 3.5 mph - N/A   Clear
7:55 AM 35.1 °F - 31.3 °F 86% 29.52 in 10.0 mi Calm Calm - N/A   Clear
8:15 AM 36.1 °F - 32.0 °F 85% 29.52 in 10.0 mi Calm Calm - N/A   Clear
8:35 AM 36.5 °F 33.9 °F 31.6 °F 83% 29.53 in 10.0 mi NW 3.5 mph - N/A   Clear
8:55 AM 37.0 °F 31.6 °F 31.6 °F 81% 29.55 in 10.0 mi NW 6.9 mph - N/A   Clear
9:15 AM 37.0 °F 33.3 °F 31.3 °F 80% 29.54 in 10.0 mi NNW 4.6 mph - N/A   Clear
9:35 AM 38.3 °F 33.9 °F 31.8 °F 77% 29.54 in 10.0 mi North 5.8 mph - N/A   Clear
9:55 AM 39.0 °F 34.8 °F 32.0 °F 76% 29.56 in 10.0 mi NNW 5.8 mph - N/A   Clear
10:15 AM 40.5 °F 35.8 °F 32.7 °F 74% 29.58 in 10.0 mi North 6.9 mph - N/A   Clear
10:35 AM 40.6 °F 37.5 °F 32.9 °F 74% 29.58 in 10.0 mi North 4.6 mph - N/A   Clear
10:55 AM 41.4 °F 35.7 °F 32.9 °F 72% 29.59 in 10.0 mi North 9.2 mph - N/A   Clear
11:15 AM 41.4 °F 35.7 °F 33.3 °F 73% 29.59 in 7.0 mi North 9.2 mph - N/A   Scattered Clouds
11:35 AM 41.0 °F 35.2 °F 33.1 °F 73% 29.58 in 7.0 mi North 9.2 mph - N/A   Mostly Cloudy
11:55 AM 41.5 °F 36.4 °F 32.7 °F 71% 29.56 in 7.0 mi North 8.1 mph - N/A   Scattered Clouds
12:15 PM 42.8 °F 39.3 °F 32.7 °F 68% 29.56 in 7.0 mi NNE 5.8 mph - N/A   Clear
12:35 PM 43.2 °F 40.5 °F 33.3 °F 68% 29.57 in 7.0 mi NNE 4.6 mph - N/A   Clear
12:55 PM 44.2 °F 41.8 °F 32.9 °F 64% 29.55 in 7.0 mi North 4.6 mph - N/A   Clear
1:15 PM 43.0 °F 41.3 °F 32.9 °F 68% 29.55 in 7.0 mi NNE 3.5 mph - N/A   Clear
1:35 PM 42.8 °F 41.1 °F 32.9 °F 68% 29.56 in 7.0 mi NNE 3.5 mph - N/A   Clear
1:55 PM 43.7 °F 41.1 °F 32.7 °F 65% 29.57 in 10.0 mi North 4.6 mph - N/A   Clear
2:15 PM 44.1 °F 39.0 °F 32.4 °F 63% 29.57 in 7.0 mi NW 9.2 mph - N/A   Clear
2:35 PM 43.0 °F 39.5 °F 32.4 °F 66% 29.58 in 5.0 mi NNW 5.8 mph - N/A   Haze
2:55 PM 42.6 °F 38.4 °F 32.2 °F 67% 29.59 in 5.0 mi North 6.9 mph - N/A   Haze
3:15 PM 41.9 °F 36.3 °F 32.2 °F 68% 29.59 in 4.0 mi NW 9.2 mph - N/A   Haze
3:35 PM 41.4 °F 37.6 °F 32.2 °F 70% 29.61 in 4.0 mi NNW 5.8 mph - N/A   Haze
3:55 PM 41.7 °F 38.0 °F 32.2 °F 69% 29.61 in 5.0 mi North 5.8 mph - N/A   Haze
4:15 PM 42.3 °F 39.4 °F 32.2 °F 67% 29.62 in 5.0 mi NNW 4.6 mph - N/A   Haze
4:35 PM 42.3 °F - 32.0 °F 67% 29.61 in 5.0 mi Calm Calm - N/A   Haze
4:55 PM 42.1 °F 38.4 °F 32.2 °F 68% 29.61 in 7.0 mi North 5.8 mph - N/A   Clear
5:15 PM 41.7 °F 38.8 °F 32.0 °F 68% 29.59 in 7.0 mi North 4.6 mph - N/A   Clear
5:35 PM 41.2 °F 36.0 °F 32.0 °F 70% 29.61 in 10.0 mi NNW 8.1 mph 17.3 mph N/A   Clear
5:55 PM 40.1 °F 33.2 °F 32.0 °F 73% 29.63 in 10.0 mi NNW 11.5 mph - N/A   Clear
6:15 PM 38.8 °F 32.6 °F 32.0 °F 76% 29.64 in 10.0 mi North 9.2 mph - N/A   Clear
6:35 PM 38.3 °F 31.9 °F 32.0 °F 78% 29.66 in 10.0 mi North 9.2 mph - N/A   Clear
6:55 PM 38.3 °F 33.2 °F 32.0 °F 78% 29.66 in 10.0 mi North 6.9 mph - N/A   Mostly Cloudy
7:15 PM 37.8 °F 32.5 °F 32.0 °F 80% 29.66 in 10.0 mi North 6.9 mph - N/A   Overcast
7:35 PM 37.9 °F 32.1 °F 32.0 °F 79% 29.65 in 10.0 mi North 8.1 mph - N/A   Overcast
7:55 PM 37.8 °F 33.3 °F 32.0 °F 80% 29.65 in 10.0 mi North 5.8 mph - N/A   Overcast
8:15 PM 37.4 °F 34.9 °F 32.0 °F 81% 29.66 in 10.0 mi North 3.5 mph - N/A   Overcast
8:35 PM 36.7 °F 32.0 °F 32.0 °F 83% 29.66 in 7.0 mi North 5.8 mph - N/A   Overcast
8:55 PM 36.7 °F 32.9 °F 32.0 °F 83% 29.67 in 7.0 mi North 4.6 mph - N/A   Overcast
9:15 PM 36.7 °F 31.2 °F 32.0 °F 83% 29.66 in 7.0 mi North 6.9 mph - N/A   Overcast
9:35 PM 36.7 °F 32.0 °F 32.0 °F 83% 29.67 in 7.0 mi North 5.8 mph - N/A   Overcast
9:55 PM 36.5 °F 31.8 °F 32.0 °F 84% 29.67 in 7.0 mi North 5.8 mph - N/A   Overcast
10:15 PM 36.1 °F 31.4 °F 32.0 °F 85% 29.67 in 7.0 mi North 5.8 mph - N/A   Overcast
10:35 PM 35.8 °F 30.9 °F 32.0 °F 86% 29.67 in 7.0 mi North 5.8 mph - N/A   Overcast
10:55 PM 35.6 °F 31.7 °F 32.0 °F 87% 29.67 in 7.0 mi North 4.6 mph - N/A   Overcast
11:15 PM 35.6 °F - 32.0 °F 87% 29.67 in 7.0 mi Calm Calm - N/A   Overcast
11:35 PM 35.6 °F 31.7 °F 32.0 °F 87% 29.68 in 5.0 mi NNW 4.6 mph - N/A   Overcast
11:55 PM 35.6 °F 32.8 °F 32.0 °F 87% 29.68 in 5.0 mi NNW 3.5 mph - N/A   Overcast